This is the latest recevied weather packets stored in our database for station/object KC4GS-13. If no packets are shown the sender has not sent any weather packets the latest 10 day(s).
| Time | Temp. | Humidity | Pressure | Rain* | Wind** | Luminosity | Snow |
|---|---|---|---|---|---|---|---|
| 1777647466 | 17.22° C | 66% | 1015.3 hPa | 0 mm | - | 115 W/m² | - |
| 1777647164 | 17.78° C | 67% | 1015.1 hPa | 0 mm | - | 107 W/m² | - |
| 1777646859 | 17.78° C | 66% | 1014.8 hPa | 0 mm | - | 96 W/m² | - |
| 1777646556 | 17.22° C | 68% | 1015 hPa | 0 mm | - | 97 W/m² | - |
| 1777646252 | 17.22° C | 67% | 1014.9 hPa | 0 mm | - | 131 W/m² | - |
| 1777645950 | 17.22° C | 66% | 1015 hPa | 0 mm | - | 115 W/m² | - |
| 1777645646 | 17.22° C | 67% | 1014.8 hPa | 0 mm | - | 81 W/m² | - |
| 1777645342 | 17.22° C | 66% | 1015 hPa | 0 mm | - | 70 W/m² | - |
| 1777645038 | 17.22° C | 67% | 1015.1 hPa | 0 mm | - | 77 W/m² | - |
| 1777644735 | 17.22° C | 65% | 1015.1 hPa | 0 mm | - | 84 W/m² | - |
| 1777644432 | 17.22° C | 65% | 1015.2 hPa | 0 mm | - | 101 W/m² | - |
| 1777644129 | 17.22° C | 65% | 1014.9 hPa | 0 mm | - | 114 W/m² | - |
| 1777643825 | 17.22° C | 67% | 1015.3 hPa | 0 mm | - | 139 W/m² | - |
| 1777643522 | 16.67° C | 67% | 1015 hPa | 0 mm | - | 144 W/m² | - |
| 1777643219 | 16.67° C | 66% | 1015 hPa | 0 mm | - | 116 W/m² | - |
| 1777642915 | 16.67° C | 68% | 1014.8 hPa | 0 mm | - | 78 W/m² | - |
| 1777642612 | 16.67° C | 71% | 1014.9 hPa | 0 mm | - | 59 W/m² | - |
| 1777642310 | 16.67° C | 69% | 1014.8 hPa | 0 mm | - | 63 W/m² | - |
| 1777642006 | 16.67° C | 69% | 1014.7 hPa | 0 mm | - | 58 W/m² | - |
| 1777641702 | 16.11° C | 70% | 1014.8 hPa | 0 mm | - | 57 W/m² | - |
| 1777641397 | 16.11° C | 68% | 1014.9 hPa | 0 mm | - | 49 W/m² | - |
| 1777641092 | 16.11° C | 69% | 1014.5 hPa | 0 mm | - | 48 W/m² | - |
| 1777640789 | 16.11° C | 70% | 1014.7 hPa | 0 mm | - | 37 W/m² | - |
| 1777640486 | 16.67° C | 69% | 1014.3 hPa | 0 mm | - | 32 W/m² | - |
| 1777640183 | 16.67° C | 71% | 1014.6 hPa | 0 mm | - | 27 W/m² | - |
* Rain latest hour (hover to see other rain measurements)
** Current wind speed in m/s (hover to see current wind gust speed)